Meteopurmerend
purmerend
Purmerend - Baaienwijk



My webcam  My webcam


Onweer radar Meer informatie blitzortung!


Regen radar Meer informatie rain snow radar


Bezoek onze andere website:

CandyAppleRed WebdesignWebdesign Purmerend Candy Apple Red

MeteopurmerendBlog

Template documentation
and downloads



Het weer levert geen direct gevaar op.    Er zijn geen waarschuwingen afgegeven.

15 daagse weersverwachting Næstved (DK)

  • Overzicht
  • Per uur
  • 15 dagen
  • Extra
  • Vergelijk
  • Kaarten
  • Dagkaart
  • Meer »
  • Info
  • Statistieken
  • Directe link
    Temp 6h Neerslag Wind  
 05:17     21:23    Daglengte: 16:06 Vandaag
08:00
19°
 
2
14:00
21°
0.8 mm
5
20:00
21°
 
4
 05:18     21:22    Daglengte: 16:04 Morgen
02:00
17°
2.5 mm
6
08:00
17°
0.6 mm
8
14:00
19°
2.3 mm
10
20:00
17°
 
8
 05:20     21:20    Daglengte: 16:00 Vrijdag 30 Jul
02:00
16°
 
8
08:00
17°
4.3 mm
10
14:00
21°
5.7 mm
9
20:00
20°
 
6
 05:22     21:18    Daglengte: 15:56 Zaterdag 31 Jul
02:00
16°
3.9 mm
2
Locatie info
Region: Sjælland
Latitude: 55.2323°N
Longitude: 11.7555°E
16 masl
Postcode: 4700
Temp/Neerslag /Baro Onweer/Dauwpunt
    Temp Baro 1h Neerslag Dauwpunt Wind UV Bewolking  
 05:17     21:23    Daglengte: 16:06 Vandaag
07:00
19°
1008.3 hPa
48%
17.9°
2
Windvlaag: 3.7 m/s
65%
08:00
19°
1008.1 hPa
19%
18.0°
2
Windvlaag: 2.7 m/s
53%
09:00
19°
1008.3 hPa
21%
17.7°
3
Windvlaag: 5.2 m/s
20%
10:00
20°
1008.2 hPa
23%
17.4°
4
Windvlaag: 7 m/s
58%
11:00
21°
1008.3 hPa
36%
16.7°
5
Windvlaag: 7.7 m/s
16%
12:00
21°
1008.2 hPa 0.4 mm
81%
14.6°
5
Windvlaag: 8.3 m/s
19%
13:00
21°
1008.1 hPa 0.4 mm
82%
13.3°
5
Windvlaag: 7.9 m/s
46%
14:00
21°
1008.0 hPa
82%
12.7°
5
Windvlaag: 6.7 m/s
36%
15:00
22°
1007.7 hPa
81%
13.0°
5
Windvlaag: 7.2 m/s
46%
16:00
22°
1007.5 hPa
72%
12.9°
5
Windvlaag: 7.3 m/s
19%
17:00
22°
1007.3 hPa
36%
13.3°
5
Windvlaag: 7.8 m/s
40%
18:00
22°
1007.0 hPa
74%
13.4°
5
Windvlaag: 7.8 m/s
37%
19:00
22°
1007.0 hPa
73%
13.8°
4
Windvlaag: 7.8 m/s
11%
20:00
21°
1006.6 hPa
67%
13.9°
4
Windvlaag: 7.7 m/s
40%
21:00
20°
1006.7 hPa
28%
15.8°
4
Windvlaag: 8.9 m/s
28%
22:00
19°
1006.6 hPa 0.8 mm
82%
16.3°
5
Windvlaag: 9 m/s
56%
23:00
19°
1006.6 hPa
40%
16.5°
4
Windvlaag: 9.5 m/s
62%
 05:18     21:22    Daglengte: 16:04 Morgen
00:00
18°
1006.4 hPa 1.1 mm
74%
16.3°
5
Windvlaag: 9.1 m/s
13%
01:00
18°
1006.0 hPa
26%
15.3°
5
Windvlaag: 8.4 m/s
13%
02:00
17°
1005.8 hPa 0.6 mm
71%
14.8°
6
Windvlaag: 9.2 m/s
10%
03:00
17°
1005.5 hPa 0.6 mm
69%
13.9°
6
Windvlaag: 9.6 m/s
11%
04:00
17°
1005.0 hPa
58%
14.6°
6
Windvlaag: 10 m/s
22%
05:00
17°
1004.8 hPa
48%
14.4°
6
Windvlaag: 10.5 m/s
9%
06:00
17°
1004.5 hPa
20%
14.1°
7
Windvlaag: 10.9 m/s
11%
07:00
17°
1004.4 hPa
23%
13.8°
7
Windvlaag: 11.9 m/s
10%
08:00
17°
1004.0 hPa
72%
13.5°
8
Windvlaag: 14.1 m/s
30%
09:00
17°
1004.0 hPa
78%
13.7°
8
Windvlaag: 14.4 m/s
37%
10:00
17°
1004.0 hPa 1.0 mm
82%
12.8°
9
Windvlaag: 13.9 m/s
22%
11:00
17°
1004.3 hPa 0.8 mm
82%
12.8°
9
Windvlaag: 13.7 m/s
40%
12:00
17°
1004.5 hPa 0.6 mm
81%
12.3°
9
Windvlaag: 12.3 m/s
12%
13:00
18°
1004.3 hPa
82%
12.4°
9
Windvlaag: 12.4 m/s
14%
14:00
19°
1004.2 hPa
72%
11.7°
10
Windvlaag: 12.5 m/s
11%
15:00
18°
1004.0 hPa
67%
11.3°
11
Windvlaag: 11.8 m/s
7%
16:00
19°
1004.0 hPa
19%
14.0°
11
Windvlaag: 12 m/s
17%
17:00
18°
1004.1 hPa
24%
13.6°
10
Windvlaag: 11.6 m/s
23%
18:00
17°
1004.3 hPa
24%
13.9°
9
Windvlaag: 10 m/s
17%
19:00
17°
1004.3 hPa
22%
13.7°
9
Windvlaag: 8.7 m/s
47%
20:00
17°
1004.5 hPa
25%
13.6°
8
Windvlaag: 7.7 m/s
12%
21:00
16°
1004.6 hPa
22%
13.5°
8
Windvlaag: 7 m/s
12%
22:00
16°
1004.6 hPa
21%
13.3°
8
Windvlaag: 9 m/s
8%
23:00
16°
1004.8 hPa
24%
13.0°
8
Windvlaag: 9.2 m/s
10%
 05:20     21:20    Daglengte: 16:00 Vrijdag 30 Jul
00:00
16°
1004.7 hPa
23%
13.0°
7
Windvlaag: 10 m/s
18%
01:00
16°
1004.6 hPa
23%
11.7°
8
Windvlaag: 10.3 m/s
18%
02:00
16°
1004.4 hPa
23%
11.0°
8
Windvlaag: 11.1 m/s
17%
03:00
16°
1004.1 hPa
22%
11.0°
8
Windvlaag: 11.1 m/s
16%
04:00
17°
1003.7 hPa
22%
11.4°
9
Windvlaag: 10.8 m/s
17%
05:00
17°
1002.6 hPa
29%
12.0°
10
Windvlaag: 11 m/s
54%
06:00
16°
1002.5 hPa 1.6 mm
31%
13.3°
10
Windvlaag: 10.8 m/s
64%
07:00
17°
1002.6 hPa 1.7 mm
81%
14.1°
10
Windvlaag: 10.9 m/s
76%
08:00
17°
1002.6 hPa 1.1 mm
89%
14.7°
10
Windvlaag: 9.9 m/s
58%
09:00
18°
1002.8 hPa 1.9 mm
90%
15.0°
10
Windvlaag: 8.7 m/s
60%
10:00
18°
1002.9 hPa 1.9 mm
92%
15.2°
10
Windvlaag: 8.4 m/s
53%
11:00
19°
1003.0 hPa 1.9 mm
93%
15.5°
10
Windvlaag: 8.7 m/s
47%
12:00
20°
1003.1 hPa
89%
14.7°
9
Windvlaag: 9 m/s
43%
13:00
20°
1002.9 hPa
80%
14.5°
9
Windvlaag: 8.7 m/s
41%
14:00
21°
1002.7 hPa
32%
13.3°
9
Windvlaag: 7.7 m/s
29%
15:00
22°
1002.5 hPa
32%
13.0°
9
Windvlaag: 7.9 m/s
46%
16:00
21°
1002.4 hPa
22%
12.3°
9
Windvlaag: 8.2 m/s
64%
17:00
21°
1002.6 hPa
21%
12.2°
9
Windvlaag: 8.1 m/s
77%
18:00
21°
1002.7 hPa
29%
12.6°
8
Windvlaag: 7.5 m/s
59%
19:00
20°
1002.7 hPa
22%
12.6°
7
Windvlaag: 5.6 m/s
15%
20:00
20°
1002.6 hPa
21%
12.9°
6
Windvlaag: 5.3 m/s
47%
21:00
19°
1002.6 hPa
21%
13.3°
5
Windvlaag: 5.2 m/s
56%
22:00
18°
1002.7 hPa
21%
13.2°
4
Windvlaag: 4.8 m/s
32%
23:00
17°
1002.4 hPa
21%
14.1°
4
Windvlaag: 4.5 m/s
33%
 05:22     21:18    Daglengte: 15:56 Zaterdag 31 Jul
00:00
17°
1002.4 hPa
21%
14.8°
3
Windvlaag: 4.1 m/s
56%
01:00
17°
1002.0 hPa 1.9 mm
21%
14.9°
2
Windvlaag: 3.2 m/s
63%
02:00
16°
1001.7 hPa 1.9 mm
21%
15.3°
2
Windvlaag: 2.8 m/s
60%
03:00
16°
1002.1 hPa
21%
14.5°
2
Windvlaag: 8.8 m/s
18%
04:00
16°
1001.7 hPa
23%
14.4°
2
Windvlaag: 8 m/s
20%
05:00
16°
1001.1 hPa
29%
14.4°
3
Windvlaag: 8.2 m/s
19%
06:00
17°
1000.8 hPa
90%
15.0°
5
Windvlaag: 8 m/s
55%
Temp/Neerslag /Baro Onweer/Dauwpunt
    Temp Baro Neerslag Dauwpunt Wind Bewolking  
 05:17     21:23    Daglengte: 16:06 Vandaag
08:00
19°
1008.1 hPa   18.0°
2
53%
11:00
21°
1008.3 hPa   16.7°
5
16%
14:00
21°
1008.0 hPa 0.8 mm 12.7°
5
36%
17:00
22°
1007.3 hPa   13.3°
5
40%
20:00
21°
1006.6 hPa   13.9°
4
40%
23:00
19°
1006.6 hPa 0.8 mm 16.5°
4
62%
 05:18     21:22    Daglengte: 16:04 Morgen
02:00
17°
1005.8 hPa 1.7 mm 14.8°
6
10%
05:00
17°
1004.8 hPa 0.6 mm 14.4°
6
9%
08:00
17°
1004.0 hPa   13.5°
8
30%
11:00
17°
1004.3 hPa 1.8 mm 12.8°
9
40%
14:00
19°
1004.2 hPa 0.6 mm 11.7°
10
11%
17:00
18°
1004.1 hPa   13.6°
10
23%
20:00
17°
1004.5 hPa   13.6°
8
12%
23:00
16°
1004.8 hPa   13.0°
8
10%
 05:20     21:20    Daglengte: 16:00 Vrijdag 30 Jul
02:00
16°
1004.4 hPa   11.0°
8
17%
05:00
17°
1002.6 hPa   12.0°
10
54%
08:00
17°
1002.6 hPa 4.3 mm 14.7°
10
58%
11:00
19°
1003.0 hPa 5.7 mm 15.5°
10
47%
14:00
21°
1002.7 hPa   13.3°
9
29%
17:00
21°
1002.6 hPa   12.2°
9
77%
20:00
20°
1002.6 hPa   12.9°
6
47%
23:00
17°
1002.4 hPa   14.1°
4
33%
 05:22     21:18    Daglengte: 15:56 Zaterdag 31 Jul
02:00
16°
1001.7 hPa 3.9 mm 15.3°
2
60%
05:00
16°
1001.1 hPa   14.4°
3
19%
08:00
18°
1000.3 hPa   15.0°
5
20%
11:00
18°
1001.0 hPa 13.5 mm 13.6°
6
1%
14:00
18°
1000.0 hPa 13.8 mm 14.0°
7
1%
17:00
18°
999.6 hPa 16.9 mm 14.3°
6
1%
20:00
16°
1000.9 hPa 18.9 mm 14.1°
8
1%
23:00
14°
1002.8 hPa 18.9 mm 11.4°
7
1%
 05:24     21:16    Daglengte: 15:52 Zondag 01 Aug
02:00
15°
1003.5 hPa 18.9 mm 10.1°
7
1%
05:00
15°
1003.2 hPa 18.9 mm 9.9°
5
1%
08:00
16°
1003.6 hPa 19.0 mm 10.2°
5
1%
11:00
18°
1004.2 hPa 19.1 mm 9.3°
6
1%
14:00
19°
1004.3 hPa 19.3 mm 9.9°
7
1%
17:00
18°
1004.4 hPa 19.4 mm 10.3°
5
1%
20:00
16°
1004.8 hPa 19.8 mm 10.0°
4
1%
23:00
14°
1005.9 hPa 19.8 mm 9.0°
5
1%
 05:26     21:14    Daglengte: 15:48 Maandag 02 Aug
02:00
13°
1006.5 hPa 19.8 mm 9.2°
6
1%
05:00
13°
1007.2 hPa 19.8 mm 8.7°
6
0%
08:00
15°
1007.9 hPa 19.8 mm 10.5°
7
0%
11:00
18°
1009.0 hPa 19.9 mm 9.0°
7
0%
14:00
20°
1009.6 hPa 19.9 mm 8.5°
7
0%
17:00
19°
1010.2 hPa 19.9 mm 8.2°
5
1%
20:00
17°
1010.6 hPa 20.0 mm 9.1°
4
1%
23:00
14°
1011.7 hPa 20.1 mm 10.1°
4
0%
 05:27     21:12    Daglengte: 15:45 Dinsdag 03 Aug
02:00
13°
1012.4 hPa 20.1 mm 9.8°
4
0%
05:00
12°
1012.0 hPa 20.1 mm 10.1°
4
0%
08:00
15°
1012.5 hPa 20.7 mm 10.4°
3
0%
11:00
18°
1012.9 hPa 20.8 mm 10.0°
5
1%
14:00
19°
1012.7 hPa 21.4 mm 9.4°
5
1%
17:00
19°
1012.5 hPa 21.4 mm 9.5°
6
1%
20:00
17°
1013.0 hPa 21.5 mm 10.1°
3
1%
23:00
14°
1013.8 hPa 21.5 mm 8.6°
1
1%
 05:29     21:10    Daglengte: 15:41 Woensdag 04 Aug
02:00
13°
1014.1 hPa 21.5 mm 9.2°
2
1%
05:00
12°
1013.9 hPa   9.9°
2
1%
08:00
15°
1014.2 hPa 42.9 mm 10.3°
1
1%
14:00
20°
1012.8 hPa 42.9 mm 9.2°
3
0%
20:00
18°
1010.7 hPa 42.9 mm 10.9°
3
1%
 05:31     21:08    Daglengte: 15:37 Donderdag 05 Aug
02:00
18°
1007.1 hPa 43.8 mm 15.1°
6
1%
08:00
18°
1003.4 hPa 46.6 mm 15.1°
5
1%
14:00
21°
1002.9 hPa 48.3 mm 13.2°
6
1%
20:00
19°
1002.6 hPa 48.6 mm 14.6°
5
0%
 05:33     21:06    Daglengte: 15:33 Vrijdag 06 Aug
02:00
16°
1002.8 hPa 48.9 mm 13.6°
1
1%
08:00
18°
1002.1 hPa 49.6 mm 14.2°
3
1%
14:00
20°
1002.3 hPa 50.5 mm 13.3°
5
1%
20:00
19°
1001.0 hPa 50.7 mm 13.7°
2
1%
 05:35     21:04    Daglengte: 15:29 Zaterdag 07 Aug
02:00
15°
1005.5 hPa 1.1 mm 13.0°
2
68%
08:00
17°
1005.5 hPa 0.7 mm 13.2°
3
67%
14:00
20°
1005.9 hPa   13.1°
5
67%
20:00
18°
1006.5 hPa 0.8 mm 13.1°
3
52%
 05:37     21:02    Daglengte: 15:25 Zondag 08 Aug
02:00
15°
1007.6 hPa 0.4 mm 12.6°
3
51%
08:00
16°
1008.2 hPa 0.4 mm 12.8°
4
56%
14:00
20°
1009.5 hPa 0.6 mm 12.6°
6
58%
20:00
18°
1010.0 hPa 0.5 mm 13.0°
4
62%
 05:38     20:59    Daglengte: 15:21 Maandag 09 Aug
02:00
15°
1011.0 hPa 0.3 mm 12.6°
3
60%
08:00
17°
1011.4 hPa 0.9 mm 12.9°
4
61%
14:00
20°
1012.5 hPa 0.9 mm 12.9°
5
72%
20:00
18°
1012.8 hPa 0.8 mm 13.2°
3
57%
 05:40     20:57    Daglengte: 15:17 Dinsdag 10 Aug
02:00
15°
1013.8 hPa 0.1 mm 12.4°
3
55%
08:00
17°
1013.8 hPa 0.3 mm 12.8°
3
62%
14:00
20°
1014.4 hPa 0.9 mm 13.1°
4
65%
20:00
18°
1014.4 hPa 0.8 mm 13.2°
3
64%
 05:42     20:55    Daglengte: 15:13 Woensdag 11 Aug
02:00
16°
1015.0 hPa 0.3 mm 12.7°
3
60%
08:00
17°
1014.6 hPa 1.1 mm 13.2°
3
64%
14:00
20°
1015.0 hPa 0.8 mm 13.1°
4
67%
20:00
18°
1014.7 hPa 0.9 mm 13.3°
4
61%
 05:44     20:53    Daglengte: 15:09 Donderdag 12 Aug
02:00
15°
1015.0 hPa 0.3 mm 12.8°
4
59%
  CAPE Lifted Index Hail Supercell Tornado SRH 3km CL BTM PRES CL TOP PRES Swiss DWD icon SMHI TS
 05:17     21:23    Daglengte: 16:06 Vandaag
07:00 419 J/kg -1.1 K 0 % 0 % 0 % 0 m²/s² 0 0 -0.92 3
08:00 327 J/kg -0.5 K 0 % 0 % 0 % 0 m²/s² 0 0 -0.17 3
09:00 242 J/kg -0.1 K 0 % 0 % 0 % 0 m²/s² 0 0 0.56 2
10:00 120 J/kg 0.6 K 0 % 0 % 0 % 0 m²/s² 0 0 1.35 3
11:00 84 J/kg 0.8 K 0 % 0 % 0 % 0 m²/s² 0 0 1.58 2
12:00 146 J/kg 0.4 K 0 % 0 % 0 % 0 m²/s² 0 0 1.18 3
13:00 141 J/kg 0.1 K 0 % 0 % 0 % 0 m²/s² 0 0 1.18 3
14:00 142 J/kg -0.2 K 0 % 0 % 0 % 0 m²/s² 0 0 1.21 3
15:00 167 J/kg -0.4 K 0 % 0 % 0 % 0 m²/s² 0 0 1.1 3
16:00 217 J/kg -0.6 K 0 % 0 % 0 % 0 m²/s² 0 0 1.59 1
17:00 278 J/kg -1.1 K 0 % 0 % 0 % 0 m²/s² 0 0 0.7 3
18:00 440 J/kg -1.6 K 0 % 0 % 0 % 0 m²/s² 0 0 -0.52 3
19:00 580 J/kg -2.1 K 0 % 0 % 0 % 0 m²/s² 0 0 -0.87 2
20:00 736 J/kg -2.3 K 0 % 0 % 0 % 0 m²/s² 0 0 -1.07 3
21:00 831 J/kg -3.2 K 0 % 0 % 0 % 0 m²/s² 0 0 -3.2 3
22:00 408 J/kg -1.0 K 0 % 0 % 0 % 0 m²/s² 0 0 1.34 80
23:00 700 J/kg -2.7 K 0 % 0 % 0 % 0 m²/s² 0 0 -0.96 3
 05:18     21:22    Daglengte: 16:04 Morgen
00:00 384 J/kg -1.7 K 0 % 0 % 0 % 0 m²/s² 0 0 0.34 80
01:00 369 J/kg -1.7 K 0 % 0 % 0 % 0 m²/s² 0 0 0.22 2
02:00 502 J/kg -2.0 K 0 % 0 % 0 % 0 m²/s² 0 0 0.04 80
03:00 436 J/kg -1.2 K 0 % 0 % 0 % 0 m²/s² 0 0 0.75 80
04:00 395 J/kg -0.6 K 0 % 0 % 0 % 0 m²/s² 0 0 0.45 3
05:00 368 J/kg 0.0 K 0 % 0 % 0 % 0 m²/s² 0 0 3.48 2
06:00 379 J/kg 0.4 K 0 % 0 % 0 % 0 m²/s² 0 0 4.36 2
07:00 241 J/kg 1.7 K 0 % 0 % 0 % 0 m²/s² 0 0 6.8 2
08:00 268 J/kg 1.3 K 0 % 0 % 0 % 0 m²/s² 0 0 6.4 2
09:00 251 J/kg 1.7 K 0 % 0 % 0 % 0 m²/s² 0 0 5.84 3
10:00 378 J/kg 0.4 K 0 % 0 % 0 % 0 m²/s² 0 0 4 80
11:00 468 J/kg 0.3 K 0 % 0 % 0 % 0 m²/s² 0 0 3.63 80
12:00 477 J/kg 0.4 K 0 % 0 % 0 % 0 m²/s² 0 0 2.92 80
13:00 477 J/kg 0.4 K 0 % 0 % 0 % 0 m²/s² 0 0 2.5 2
14:00 306 J/kg 1.1 K 0 % 0 % 0 % 0 m²/s² 0 0 3.47 2
15:00 266 J/kg 0.4 K 0 % 0 % 0 % 0 m²/s² 0 0 2.98 2
16:00 298 J/kg -0.7 K 0 % 0 % 0 % 0 m²/s² 0 0 1.22 2
17:00 266 J/kg -0.7 K 0 % 0 % 0 % 0 m²/s² 0 0 -0.4 2
18:00 318 J/kg -1.5 K 0 % 0 % 0 % 0 m²/s² 0 0 -1.32 2
19:00 503 J/kg -2.8 K 0 % 0 % 0 % 0 m²/s² 0 0 -2.08 3
20:00 610 J/kg -3.3 K 0 % 0 % 0 % 0 m²/s² 0 0 -1.95 2
21:00 478 J/kg -2.5 K 0 % 0 % 0 % 0 m²/s² 0 0 0.17 2
22:00 181 J/kg -0.8 K 0 % 0 % 0 % 0 m²/s² 0 0 2.62 2
23:00 162 J/kg -0.7 K 0 % 0 % 0 % 0 m²/s² 0 0 3.02 2
 05:20     21:20    Daglengte: 16:00 Vrijdag 30 Jul
00:00 190 J/kg -0.9 K 0 % 0 % 0 % 0 m²/s² 0 0 2.37 2
01:00 131 J/kg -0.2 K 0 % 0 % 0 % 0 m²/s² 0 0 2.29 1
02:00 96 J/kg 0.3 K 0 % 0 % 0 % 0 m²/s² 0 0 2.49 2
03:00 40 J/kg 1.5 K 0 % 0 % 0 % 0 m²/s² 0 0 3.51 2
04:00 40 J/kg 1.6 K 0 % 0 % 0 % 0 m²/s² 0 0 3.19 1
05:00 23 J/kg 0.2 K 0 % 0 % 0 % 0 m²/s² 0 0 0.83 1
06:00 190 J/kg -0.8 K 0 % 0 % 0 % 0 m²/s² 0 0 -0.38 2
07:00 410 J/kg -1.5 K 0 % 0 % 0 % 0 m²/s² 0 0 -0.57 2
08:00 510 J/kg -1.9 K 0 % 0 % 0 % 0 m²/s² 0 0 -0.31 3
09:00 647 J/kg -2.5 K 0 % 0 % 0 % 0 m²/s² 0 0 -0.85 80
10:00 801 J/kg -2.7 K 0 % 0 % 0 % 0 m²/s² 0 0 -1.77 80
11:00 766 J/kg -2.4 K 0 % 0 % 0 % 0 m²/s² 0 0 -1.17 2
12:00 466 J/kg -1.3 K 0 % 0 % 0 % 0 m²/s² 0 0 0.38 2
13:00 362 J/kg -1.0 K 0 % 0 % 0 % 0 m²/s² 0 0 1.25 3
14:00 331 J/kg -0.8 K 0 % 0 % 0 % 0 m²/s² 0 0 1.39 2
15:00 188 J/kg -0.3 K 0 % 0 % 0 % 0 m²/s² 0 0 2.25 2
16:00 110 J/kg -0.1 K 0 % 0 % 0 % 0 m²/s² 0 0 2.69 2
17:00 106 J/kg -0.3 K 0 % 0 % 0 % 0 m²/s² 0 0 2.58 2
18:00 34 J/kg -0.1 K 0 % 0 % 0 % 0 m²/s² 0 0 3.11 2
19:00 29 J/kg 0.2 K 0 % 0 % 0 % 0 m²/s² 0 0 3.68 2
20:00 9 J/kg 1.0 K 0 % 0 % 0 % 0 m²/s² 0 0 4.96 3
21:00 0 J/kg 1.7 K 0 % 0 % 0 % 0 m²/s² 0 0 5.87 3
22:00 0 J/kg 2.3 K 0 % 0 % 0 % 0 m²/s² 0 0 6.47 1
23:00 2 J/kg 1.9 K 0 % 0 % 0 % 0 m²/s² 0 0 5.65 2
 05:22     21:18    Daglengte: 15:56 Zaterdag 31 Jul
00:00 10 J/kg 1.2 K 0 % 0 % 0 % 0 m²/s² 0 0 4.23 2
01:00 19 J/kg 0.9 K 0 % 0 % 0 % 0 m²/s² 0 0 3.33 2
02:00 98 J/kg 0.2 K 0 % 0 % 0 % 0 m²/s² 0 0 1.94 2
03:00 68 J/kg 0.4 K 0 % 0 % 0 % 0 m²/s² 0 0 1.45 2
04:00 23 J/kg 0.7 K 0 % 0 % 0 % 0 m²/s² 0 0 1.3 2
05:00 90 J/kg 0.5 K 0 % 0 % 0 % 0 m²/s² 0 0 0.98 2
06:00 82 J/kg 0.3 K 0 % 0 % 0 % 0 m²/s² 0 0 0.6 3
Temp Baro Wind Neerslag
  EWN Forecast EWN WRFDA DWD ICON FMI HIRLAM MET Norway GFS
 05:17     21:23    Daglengte: 16:06 Vandaag
08:00 18.9° 1008.1 hPa 2.2 m/s 0.0 mm 17.9° 1008.7 hPa 4.9 m/s 0.7 mm 19.7° 1007.9 hPa 2.5 m/s -1.8 mm 18.9° 1008.1 hPa 2.1 m/s 0.0 mm 17.4° 1008.6 hPa 3.9 m/s
11:00 20.6° 1008.3 hPa 4.6 m/s 0.0 mm 20.1° 1008.6 hPa 6.4 m/s 1.3 mm 20.8° 1008.6 hPa 5.6 m/s 0.0 mm 20.7° 1008.3 hPa 4.3 m/s 0.0 mm 19.6° 1008.5 hPa 6.8 m/s
14:00 21.0° 1008.0 hPa 5.2 m/s 0.8 mm 21.7° 1008.0 hPa 5.4 m/s 1.4 mm 20.6° 1008.4 hPa 4.7 m/s 0.5 mm 23.2° 1008.0 hPa 5.9 m/s 0.0 mm 21.3° 1008.1 hPa 6.1 m/s
17:00 22.3° 1007.3 hPa 5.3 m/s 0.0 mm 22.5° 1007.1 hPa 4.7 m/s 1.4 mm 21.8° 1007.8 hPa 4.8 m/s 0.1 mm 22.6° 1007.2 hPa 5.4 m/s 0.0 mm 20.9° 1008.0 hPa 6.6 m/s
20:00 21.2° 1006.6 hPa 3.8 m/s 0.0 mm 21.5° 1006.2 hPa 3.0 m/s 1.4 mm 20.5° 1007.1 hPa 3.9 m/s 0.2 mm 21.5° 1006.6 hPa 2.3 m/s 0.0 mm 19.4° 1007.2 hPa 4.4 m/s
23:00 18.5° 1006.6 hPa 4.2 m/s 0.8 mm 18.6° 1006.5 hPa 4.8 m/s 4.8 mm 17.7° 1007.2 hPa 3.7 m/s 0.6 mm 18.6° 1006.6 hPa 3.6 m/s 0.0 mm 17.1° 1007.0 hPa 4.8 m/s
 05:18     21:22    Daglengte: 16:04 Morgen
02:00 17.5° 1005.8 hPa 5.8 m/s 1.7 mm 16.9° 1005.4 hPa 3.5 m/s 5.6 mm 16.9° 1006.3 hPa 4.5 m/s 1.4 mm 17.6° 1005.8 hPa 5.9 m/s 0.0 mm 16.6° 1006.3 hPa 6.1 m/s
05:00 16.8° 1004.8 hPa 6.3 m/s 0.6 mm 16.6° 1004.1 hPa 5.7 m/s 5.6 mm 17.1° 1005.4 hPa 5.4 m/s 0.2 mm 16.1° 1004.5 hPa 6.2 m/s 0.0 mm 16.0° 1005.8 hPa 7.7 m/s
08:00 17.0° 1004.0 hPa 7.6 m/s 0.0 mm 17.4° 1003.2 hPa 8.6 m/s 5.8 mm 17.1° 1004.5 hPa 6.2 m/s 0.1 mm 16.4° 1004.1 hPa 7.2 m/s 0.0 mm 17.0° 1005.0 hPa 9.5 m/s
11:00 16.9° 1004.3 hPa 9.1 m/s 1.8 mm 18.6° 1003.0 hPa 9.9 m/s 5.9 mm 16.6° 1005.3 hPa 7.7 m/s 1.3 mm 16.8° 1004.3 hPa 8.8 m/s 0.0 mm 16.6° 1005.0 hPa 10.0 m/s
14:00 18.6° 1004.2 hPa 10.2 m/s 0.6 mm 18.7° 1003.1 hPa 10.7 m/s 7.4 mm 18.4° 1005.0 hPa 8.6 m/s 0.5 mm 18.4° 1004.2 hPa 10.3 m/s 0.0 mm 17.9° 1005.0 hPa 11.0 m/s
17:00 17.6° 1004.1 hPa 10.1 m/s 0.0 mm 18.9° 1002.8 hPa 11.5 m/s 9.6 mm 18.8° 1004.7 hPa 9.3 m/s 0.0 mm 17.3° 1004.2 hPa 9.7 m/s 0.0 mm 18.2° 1004.5 hPa 12.0 m/s
20:00 16.9° 1004.5 hPa 8.2 m/s 0.0 mm 17.3° 1003.8 hPa 9.3 m/s 11.9 mm 16.9° 1004.6 hPa 7.8 m/s 0.0 mm 16.5° 1004.6 hPa 7.6 m/s 0.0 mm 16.2° 1004.7 hPa 10.6 m/s
23:00 16.0° 1004.8 hPa 7.6 m/s 0.0 mm 15.8° 1003.7 hPa 7.8 m/s 12.1 mm 15.7° 1004.9 hPa 6.7 m/s 0.0 mm 15.8° 1005.2 hPa 6.9 m/s 0.0 mm 15.2° 1005.1 hPa 8.4 m/s
 05:20     21:20    Daglengte: 16:00 Vrijdag 30 Jul
02:00 16.1° 1004.4 hPa 8.2 m/s 0.0 mm 16.5° 1002.9 hPa 8.9 m/s 12.1 mm 15.4° 1004.6 hPa 5.9 m/s 0.0 mm 16.1° 1004.9 hPa 8.0 m/s 0.0 mm 15.6° 1004.6 hPa 9.0 m/s
05:00 16.6° 1002.6 hPa 9.9 m/s 0.0 mm 16.7° 1001.4 hPa 10.6 m/s 12.2 mm 15.7° 1003.9 hPa 5.9 m/s 0.0 mm 15.4° 1003.6 hPa 10.3 m/s
08:00 17.0° 1002.6 hPa 10.3 m/s 4.3 mm 17.1° 1001.2 hPa 11.2 m/s 13.6 mm 16.5° 1003.8 hPa 6.8 m/s 0.2 mm 15.7° 1002.8 hPa 11.5 m/s
11:00 18.8° 1003.0 hPa 9.7 m/s 5.7 mm 18.8° 1001.6 hPa 10.5 m/s 15.3 mm 18.5° 1003.6 hPa 7.1 m/s 0.9 mm 17.9° 1002.7 hPa 11.5 m/s
14:00 21.0° 1002.7 hPa 9.2 m/s 0.0 mm 21.6° 1002.1 hPa 9.7 m/s 16.5 mm 21.0° 1003.3 hPa 8.3 m/s 0.0 mm 19.6° 1003.3 hPa 11.1 m/s
17:00 20.9° 1002.6 hPa 8.7 m/s 0.0 mm 22.0° 1002.5 hPa 9.4 m/s 16.6 mm 20.8° 1003.5 hPa 7.0 m/s 0.0 mm 20.8° 1003.5 hPa 10.4 m/s
20:00 19.6° 1002.6 hPa 6.3 m/s 0.0 mm 19.9° 1002.4 hPa 7.8 m/s 16.6 mm 19.6° 1003.6 hPa 5.2 m/s 0.0 mm 18.7° 1004.0 hPa 8.6 m/s
23:00 17.2° 1002.4 hPa 3.5 m/s 0.0 mm 16.8° 1002.5 hPa 4.6 m/s 16.6 mm 16.9° 1003.7 hPa 1.8 m/s 0.0 mm 16.4° 1004.1 hPa 7.1 m/s
 05:22     21:18    Daglengte: 15:56 Zaterdag 31 Jul
02:00 16.4° 1001.7 hPa 2.0 m/s 3.9 mm 16.2° 1001.9 hPa 4.8 m/s 16.6 mm 16.3° 1002.9 hPa 0.7 m/s 0.0 mm 16.1° 1004.0 hPa 6.4 m/s
05:00 16.1° 1001.1 hPa 2.8 m/s 0.0 mm 16.5° 1000.5 hPa 4.8 m/s 16.7 mm 16.0° 1001.2 hPa 2.2 m/s 0.0 mm 15.6° 1002.6 hPa 5.9 m/s
08:00 17.8° 1000.3 hPa 5.0 m/s 0.0 mm 17.0° 999.7 hPa 3.4 m/s 17.2 mm 17.9° 1000.5 hPa 5.4 m/s 0.0 mm 17.7° 1001.9 hPa 6.4 m/s
11:00 18.2° 1001.0 hPa 5.6 m/s 13.5 mm 18.2° 1001.0 hPa 5.6 m/s 13.5 mm
14:00 18.0° 1000.0 hPa 6.9 m/s 13.8 mm 18.0° 1000.0 hPa 6.9 m/s 13.8 mm
17:00 18.0° 999.6 hPa 5.9 m/s 16.9 mm 18.0° 999.6 hPa 5.9 m/s 16.9 mm
20:00 16.3° 1000.9 hPa 7.8 m/s 18.9 mm 16.3° 1000.9 hPa 7.8 m/s 18.9 mm
23:00 14.0° 1002.8 hPa 6.7 m/s 18.9 mm 14.0° 1002.8 hPa 6.7 m/s 18.9 mm
 05:24     21:16    Daglengte: 15:52 Zondag 01 Aug
02:00 14.6° 1003.5 hPa 6.7 m/s 18.9 mm 14.6° 1003.5 hPa 6.7 m/s 18.9 mm
05:00 14.8° 1003.2 hPa 5.1 m/s 18.9 mm 14.8° 1003.2 hPa 5.1 m/s 18.9 mm
08:00 15.6° 1003.6 hPa 4.7 m/s 19.0 mm 15.6° 1003.6 hPa 4.7 m/s 19.0 mm
11:00 17.6° 1004.2 hPa 6.3 m/s 19.1 mm 17.6° 1004.2 hPa 6.3 m/s 19.1 mm
14:00 18.8° 1004.3 hPa 7.2 m/s 19.3 mm 18.8° 1004.3 hPa 7.2 m/s 19.3 mm
17:00 18.4° 1004.4 hPa 5.3 m/s 19.4 mm 18.4° 1004.4 hPa 5.3 m/s 19.4 mm
20:00 16.3° 1004.8 hPa 3.8 m/s 19.8 mm 16.3° 1004.8 hPa 3.8 m/s 19.8 mm
23:00 13.7° 1005.9 hPa 5.0 m/s 19.8 mm 13.7° 1005.9 hPa 4.9 m/s 19.8 mm
 05:26     21:14    Daglengte: 15:48 Maandag 02 Aug
02:00 12.6° 1006.5 hPa 5.6 m/s 19.8 mm 12.6° 1006.5 hPa 5.6 m/s 19.8 mm
05:00 12.6° 1007.2 hPa 6.1 m/s 19.8 mm 12.6° 1007.2 hPa 6.1 m/s 19.8 mm
08:00 15.0° 1007.9 hPa 6.7 m/s 19.8 mm 15.0° 1007.9 hPa 6.7 m/s 19.8 mm
11:00 17.8° 1009.0 hPa 7.2 m/s 19.9 mm 17.8° 1009.0 hPa 7.2 m/s 19.9 mm
14:00 19.5° 1009.6 hPa 7.0 m/s 19.9 mm 19.5° 1009.6 hPa 7.0 m/s 19.9 mm
17:00 18.6° 1010.2 hPa 5.3 m/s 19.9 mm 18.6° 1010.2 hPa 5.3 m/s 19.9 mm
20:00 17.1° 1010.6 hPa 4.0 m/s 20.0 mm 17.1° 1010.6 hPa 4.0 m/s 20.0 mm
23:00 13.8° 1011.7 hPa 4.2 m/s 20.1 mm 13.8° 1011.7 hPa 4.2 m/s 20.1 mm
 05:27     21:12    Daglengte: 15:45 Dinsdag 03 Aug
02:00 12.7° 1012.4 hPa 4.0 m/s 20.1 mm 12.7° 1012.4 hPa 4.0 m/s 20.1 mm
05:00 12.3° 1012.0 hPa 3.9 m/s 20.1 mm 12.3° 1012.0 hPa 3.9 m/s 20.1 mm
08:00 15.1° 1012.5 hPa 3.4 m/s 20.7 mm 15.1° 1012.5 hPa 3.4 m/s 20.7 mm
11:00 17.5° 1012.9 hPa 5.3 m/s 20.8 mm 17.5° 1012.9 hPa 5.3 m/s 20.8 mm
14:00 18.5° 1012.7 hPa 5.3 m/s 21.4 mm 18.5° 1012.7 hPa 5.3 m/s 21.4 mm
17:00 18.7° 1012.5 hPa 5.6 m/s 21.4 mm 18.7° 1012.5 hPa 5.6 m/s 21.4 mm
20:00 16.9° 1013.0 hPa 3.2 m/s 21.5 mm 16.9° 1013.0 hPa 3.2 m/s 21.5 mm
23:00 14.1° 1013.8 hPa 1.5 m/s 21.5 mm 14.1° 1013.8 hPa 1.5 m/s 21.5 mm
 05:29     21:10    Daglengte: 15:41 Woensdag 04 Aug
02:00 13.1° 1014.1 hPa 2.0 m/s 21.5 mm 13.1° 1014.1 hPa 2.0 m/s 21.5 mm
05:00 12.3° 1013.9 hPa 1.6 m/s 21.5 mm 12.3° 1013.9 hPa 1.6 m/s 21.5 mm
08:00 15.1° 1014.2 hPa 1.0 m/s 21.5 mm 15.1° 1014.2 hPa 1.0 m/s 21.5 mm
14:00 19.6° 1012.8 hPa 2.6 m/s 21.5 mm 19.6° 1012.8 hPa 2.6 m/s 21.5 mm
20:00 18.2° 1010.7 hPa 3.4 m/s 21.5 mm 18.2° 1010.7 hPa 3.4 m/s 21.5 mm
 05:31     21:08    Daglengte: 15:37 Donderdag 05 Aug
02:00 17.9° 1007.1 hPa 5.8 m/s 22.3 mm 17.9° 1007.1 hPa 5.8 m/s 22.3 mm
08:00 17.9° 1003.4 hPa 4.6 m/s 23.7 mm 17.9° 1003.4 hPa 4.6 m/s 23.7 mm
14:00 20.6° 1002.9 hPa 5.9 m/s 24.2 mm 20.6° 1002.9 hPa 5.9 m/s 24.2 mm
20:00 19.3° 1002.6 hPa 5.4 m/s 24.3 mm 19.3° 1002.6 hPa 5.4 m/s 24.3 mm
 05:33     21:06    Daglengte: 15:33 Vrijdag 06 Aug
02:00 15.9° 1002.8 hPa 1.0 m/s 24.5 mm 15.9° 1002.8 hPa 1.0 m/s 24.5 mm
08:00 17.6° 1002.1 hPa 2.9 m/s 24.8 mm 17.6° 1002.1 hPa 2.9 m/s 24.8 mm
14:00 20.0° 1002.3 hPa 4.5 m/s 25.3 mm 20.0° 1002.3 hPa 4.5 m/s 25.3 mm
20:00 19.0° 1001.0 hPa 2.3 m/s 25.4 mm 19.0° 1001.0 hPa 2.3 m/s 25.4 mm
 05:35     21:04    Daglengte: 15:29 Zaterdag 07 Aug
02:00 15.5° 1005.5 hPa 2.0 m/s 1.1 mm
08:00 16.6° 1005.5 hPa 3.2 m/s 0.7 mm
14:00 20.3° 1005.9 hPa 4.6 m/s 0.0 mm
20:00 18.3° 1006.5 hPa 3.2 m/s 0.8 mm
 05:37     21:02    Daglengte: 15:25 Zondag 08 Aug
02:00 15.3° 1007.6 hPa 3.1 m/s 0.4 mm
08:00 16.4° 1008.2 hPa 3.9 m/s 0.4 mm
14:00 20.0° 1009.5 hPa 5.5 m/s 0.6 mm
20:00 18.2° 1010.0 hPa 3.8 m/s 0.5 mm
 05:38     20:59    Daglengte: 15:21 Maandag 09 Aug
02:00 15.5° 1011.0 hPa 2.8 m/s 0.3 mm
08:00 16.7° 1011.4 hPa 3.7 m/s 0.9 mm
14:00 20.1° 1012.5 hPa 4.7 m/s 0.9 mm
20:00 18.4° 1012.8 hPa 3.4 m/s 0.8 mm
 05:40     20:57    Daglengte: 15:17 Dinsdag 10 Aug
02:00 15.5° 1013.8 hPa 2.7 m/s 0.1 mm
08:00 16.6° 1013.8 hPa 2.8 m/s 0.3 mm
14:00 20.0° 1014.4 hPa 3.9 m/s 0.9 mm
20:00 18.2° 1014.4 hPa 3.1 m/s 0.8 mm
 05:42     20:55    Daglengte: 15:13 Woensdag 11 Aug
02:00 15.6° 1015.0 hPa 2.6 m/s 0.3 mm
08:00 16.6° 1014.6 hPa 3.5 m/s 1.1 mm
14:00 20.3° 1015.0 hPa 4.0 m/s 0.8 mm
20:00 18.3° 1014.7 hPa 3.7 m/s 0.9 mm
 05:44     20:53    Daglengte: 15:09 Donderdag 12 Aug
02:00 15.4° 1015.0 hPa 3.8 m/s 0.3 mm
FMI Hirlam - 7.5 km EWN WRFDA - 12 km DWD ICON - 7 km GFS - 25 km Basiskaart






























































Updatetijd (Europe/Amsterdam) Resolutie Lengte Stap
FMI Hirlam 01:45, 07:45, 13:45, 19:45 7.5 km 49h 1h
EWN WRFDA 05:30, 11:30, 17:30, 23:30 12 km 73h 1h
DWD ICON 06:00, 12:00, 18:00, 00:00 7 km 75h 1h
GFS 02:15, 08:15, 14:15, 20:15 25 km 237h 3h
30+ mm
25-30 mm
20-25 mm
15-20 mm
10-15 mm
6-10 mm
4-6 mm
2-4 mm
1-2 mm
0.5-1 mm
0.2-0.5 mm
0.1-0.2 mm
30+ mm
25-30 mm
20-25 mm
15-20 mm
10-15 mm
6-10 mm
4-6 mm
2-4 mm
1-2 mm
0.5-1 mm
0.2-0.5 mm
0.1-0.2 mm
Sneeuwval
Natte sneeuw
Hagel
Vorst
30+ mm
25-30 mm
20-25 mm
15-20 mm
10-15 mm
6-10 mm
4-6 mm
2-4 mm
1-2 mm
0.5-1 mm
0.2-0.5 mm
0.1-0.2 mm
Sneeuwval
Natte sneeuw
Hagel
Vorst
Onweer
50 mm
40 mm
30 mm
26 mm
22 mm
18 mm
14 mm
10 mm
9 mm
8 mm
7 mm
6 mm
5 mm
4.5 mm
4 mm
3.5 mm
3 mm
2.5 mm
2 mm
1.5 mm
1 mm
0.8 mm
0.6 mm
0.4 mm
0.2 mm
0.05 mm
35°
30°
25°
20°
15°
10°
-5°
-10°
-15°
-20°
-25°
-30°
-35°
33> m/s
29 m/s
25 m/s
21 m/s
17 m/s
14 m/s
11 m/s
8 m/s
5 m/s
3 m/s
0 m/s
2600 J/kg
2400 J/kg
2200 J/kg
2000 J/kg
1800 J/kg
1600 J/kg
1400 J/kg
1200 J/kg